SV1DOD Weather Reports


Display with metric or nautical units.
time (UTC)temp
F
wind
direction
speed
MPH
gust
MPH
rain 1hr
in
rain 24hr
in
rain mn
in
humidity
%
barometer
mb
20260504033038 43 170 3.0 6.0 0.00 0.15 0.00 74 1019.0
20260504032018 43 190 4.0 9.0 0.00 0.15 0.00 74 1019.0
20260504031018 43 191 5.0 9.0 0.00 0.16 0.00 74 1019.0
20260504030017 43 193 4.0 7.0 0.00 0.16 0.00 74 1019.0
20260504025018 43 178 2.0 4.0 0.00 0.16 0.00 74 1019.0
20260504024018 43 162 2.0 8.0 0.00 0.16 0.00 74 1019.0
20260504023037 43 190 6.0 10.0 0.00 0.16 0.00 74 1019.0
20260504022016 43 176 5.0 10.0 0.00 0.16 0.00 73 1018.9
20260504021038 43 175 6.0 11.0 0.00 0.16 0.00 73 1019.0
20260504020018 43 190 5.0 9.0 0.00 0.16 0.00 73 1019.0
20260504015018 44 191 5.0 7.0 0.00 0.16 0.00 73 1018.9
20260504014038 44 184 5.0 8.0 0.00 0.16 0.00 73 1018.9
20260504013016 43 185 4.0 7.0 0.00 0.16 0.00 73 1018.9
20260504012016 44 174 4.0 9.0 0.00 0.16 0.00 72 1018.8
20260504011018 44 174 4.0 11.0 0.00 0.16 0.00 73 1018.7
20260504010016 43 166 5.0 12.0 0.00 0.16 0.00 75 1018.6
20260504005018 43 166 5.0 13.0 0.00 0.16 0.00 76 1018.6
20260504004018 42 165 5.0 13.0 0.00 0.16 0.00 76 1018.6
20260504003016 43 185 6.0 10.0 0.00 0.16 0.00 74 1018.7
20260504002058 44 197 6.0 11.0 0.00 0.16 0.00 74 1018.8
20260504001017 44 196 7.0 12.0 0.00 0.16 0.00 75 1018.7
20260504000016 44 192 7.0 12.0 0.00 0.16 0.00 75 1018.7
20260503235016 44 195 7.0 10.0 0.00 0.16 0.00 75 1018.7
20260503234016 44 180 6.0 14.0 0.00 0.16 0.00 75 1018.7
20260503233016 44 180 7.0 11.0 0.00 0.16 0.00 76 1018.8
20260503232016 44 185 6.0 11.0 0.00 0.16 0.00 74 1018.9
20260503231018 45 180 5.0 10.0 0.00 0.16 0.00 74 1018.8
20260503230016 45 189 5.0 8.0 0.00 0.16 0.00 74 1018.9
20260503225016 45 181 6.0 11.0 0.00 0.16 0.00 74 1018.9
20260503224018 45 177 5.0 13.0 0.00 0.16 0.00 74 1019.1
20260503223038 45 186 7.0 11.0 0.00 0.16 0.00 74 1019.1
20260503222016 46 191 5.0 9.0 0.00 0.16 0.00 73 1019.1
20260503221036 46 185 4.0 10.0 0.00 0.16 0.00 74 1019.2
20260503220017 45 179 4.0 9.0 0.00 0.16 0.00 75 1019.1
20260503215018 45 172 5.0 11.0 0.00 0.16 0.00 76 1019.2
20260503214018 45 178 5.0 12.0 0.00 0.16 0.00 76 1019.1
20260503213016 45 211 8.0 12.0 0.00 0.16 0.00 74 1019.2
20260503212018 46 188 5.0 9.0 0.00 0.16 0.00 74 1019.1
20260503211016 46 186 4.0 9.0 0.00 0.16 0.00 73 1019.1
20260503210016 47 188 6.0 9.0 0.00 0.16 0.16 72 1019.1
20260503205015 47 177 4.0 10.0 0.00 0.16 0.16 74 1019.0
20260503204015 46 190 6.0 11.0 0.00 0.16 0.16 74 1019.0
20260503203037 47 183 8.0 14.0 0.00 0.16 0.16 74 1019.1
20260503202016 46 176 6.0 11.0 0.00 0.16 0.16 75 1019.2
20260503201015 46 170 6.0 11.0 0.00 0.16 0.16 75 1019.3
20260503200016 47 175 6.0 14.0 0.00 0.16 0.16 74 1019.4
20260503195017 47 183 6.0 11.0 0.00 0.16 0.16 74 1019.4
20260503194037 47 164 5.0 12.0 0.00 0.16 0.16 74 1019.3
20260503193017 47 174 6.0 12.0 0.00 0.16 0.16 74 1019.3
20260503192035 48 4 7.0 12.0 0.00 0.16 0.16 73 1019.3
20260503191016 48 0 5.0 12.0 0.00 0.16 0.16 74 1019.3
20260503190017 48 0 6.0 14.0 0.00 0.16 0.16 74 1019.3
20260503185015 49 0 7.0 12.0 0.00 0.16 0.16 73 1019.3
20260503184015 49 0 6.0 12.0 0.00 0.16 0.16 74 1019.2
20260503183015 50 0 6.0 11.0 0.00 0.16 0.16 72 1019.1
20260503182017 50 0 8.0 11.0 0.00 0.16 0.16 71 1019.0
20260503181016 51 0 4.0 9.0 0.00 0.16 0.16 70 1018.8
20260503180015 52 0 4.0 6.0 0.00 0.16 0.16 68 1018.8
20260503175015 52 0 2.0 4.0 0.00 0.16 0.16 68 1018.7
20260503174017 53 0 2.0 5.0 0.00 0.16 0.16 67 1018.6
20260503173016 55 0 2.0 5.0 0.00 0.16 0.16 64 1018.5
20260503172015 57 0 1.0 3.0 0.00 0.16 0.16 61 1018.4
20260503171015 58 0 0.0 2.0 0.00 0.16 0.16 58 1018.3
20260503131015 56 346 5.0 10.0 0.00 0.16 0.16 62 1018.7
20260503081515 48 1 4.0 12.0 0.09 0.13 0.13 77 1019.4
20260503080517 48 0 4.0 9.0 0.09 0.11 0.11 78 1019.2
20260503072516 50 0 2.0 4.0 0.06 0.06 0.06 78 1018.4
20260503071516 50 0 2.0 4.0 0.02 0.03 0.03 77 1018.3
20260503070518 51 0 1.0 2.0 0.01 0.02 0.02 77 1018.1
20260503054517 49 0 3.0 5.0 0.00 0.02 0.01 78 1017.5
20260503053537 49 0 3.0 9.0 0.00 0.02 0.01 77 1017.4
20260503052515 49 0 3.0 6.0 0.00 0.02 0.01 77 1017.3
20260503051515 49 0 1.0 4.0 0.00 0.02 0.01 77 1017.5
20260503050519 49 2 2.0 3.0 0.00 0.02 0.01 77 1017.5
20260503045516 49 2 1.0 3.0 0.00 0.02 0.01 78 1017.5
20260503044517 49 0 0.0 1.0 0.00 0.02 0.01 78 1017.5
20260503043517 49 32 1.0 2.0 0.00 0.02 0.01 78 1017.5
20260503042516 49 29 0.0 1.0 0.00 0.02 0.01 78 1017.5
20260503041515 49 15 0.0 3.0 0.01 0.02 0.01 78 1017.6
20260503040516 49 19 0.0 1.0 0.01 0.02 0.01 78 1017.6
20260503035518 49 13 0.0 4.0 0.01 0.02 0.01 77 1017.4
20260503034517 49 9 2.0 6.0 0.01 0.02 0.01 77 1017.3
20260503033516 49 3 3.0 10.0 0.01 0.02 0.01 76 1017.1